• In Spain
  • List of Countries
  • For 7 days
  • Water Temperature
  • Satellite Maps
  • Weather Map
  • Weather Widgets
  • user-avatar
    Login

    Hourly Weather Brisbane

    Today, 16 December, Saturday

    Time Temperature Precipitation Wind Pressure Humidity
    00:00 +23°C° 0 mm 2 mps 759 mmHg 89%
    01:00 +23°C° 0 mm 2 mps 759 mmHg 91%
    02:00 +23°C° 0.1 mm 2 mps 759 mmHg 91%
    03:00 +23°C° 0.1 mm 2 mps 759 mmHg 91%
    04:00 +23°C° 0 mm 2 mps 759 mmHg 91%
    05:00 +24°C° 0.1 mm 2 mps 759 mmHg 87%
    06:00 +25°C° 0.1 mm 2 mps 760 mmHg 82%
    07:00 +26°C° 0.1 mm 2 mps 760 mmHg 77%
    08:00 +28°C° 0.1 mm 2 mps 760 mmHg 70%
    09:00 +29°C° 0.1 mm 3 mps 760 mmHg 62%
    10:00 +31°C° 0 mm 3 mps 760 mmHg 54%
    11:00 +33°C° 0 mm 3 mps 760 mmHg 52%
    12:00 +33°C° 0 mm 3 mps 760 mmHg 49%
    13:00 +34°C° 0 mm 3 mps 759 mmHg 46%
    14:00 +34°C° 0 mm 4 mps 759 mmHg 48%
    15:00 +33°C° 0 mm 4 mps 758 mmHg 49%
    16:00 +32°C° 0 mm 4 mps 758 mmHg 55%
    17:00 +29°C° 0 mm 3 mps 758 mmHg 61%
    18:00 +28°C° 0 mm 3 mps 759 mmHg 67%
    19:00 +26°C° 0 mm 3 mps 759 mmHg 73%
    20:00 +26°C° 0 mm 3 mps 759 mmHg 77%
    21:00 +25°C° 0 mm 3 mps 760 mmHg 80%
    22:00 +24°C° 0 mm 2 mps 760 mmHg 84%
    23:00 +24°C° 0 mm 2 mps 760 mmHg 83%

    Tomorrow, 17 December, Sunday

    Time Temperature Precipitation Wind Pressure Humidity
    00:00 +24°C° 0 mm 2 mps 760 mmHg 83%
    01:00 +24°C° 0 mm 2 mps 760 mmHg 83%
    02:00 +23°C° 0 mm 2 mps 760 mmHg 83%
    03:00 +23°C° 0 mm 1 mps 760 mmHg 83%
    04:00 +23°C° 0 mm 1 mps 760 mmHg 83%
    05:00 +24°C° 0 mm 1 mps 760 mmHg 76%
    06:00 +26°C° 0 mm 1 mps 760 mmHg 69%
    07:00 +27°C° 0 mm 2 mps 760 mmHg 62%
    08:00 +29°C° 0 mm 2 mps 760 mmHg 56%
    09:00 +30°C° 0 mm 2 mps 760 mmHg 49%
    10:00 +33°C° 0 mm 3 mps 760 mmHg 43%
    11:00 +34°C° 0 mm 3 mps 760 mmHg 42%
    12:00 +34°C° 0 mm 4 mps 760 mmHg 42%
    13:00 +35°C° 0 mm 4 mps 759 mmHg 42%
    14:00 +34°C° 0 mm 4 mps 759 mmHg 45%
    15:00 +33°C° 0 mm 4 mps 759 mmHg 49%
    16:00 +32°C° 0 mm 5 mps 758 mmHg 52%
    17:00 +29°C° 0 mm 4 mps 759 mmHg 59%
    18:00 +28°C° 0 mm 3 mps 759 mmHg 66%
    19:00 +26°C° 0 mm 2 mps 760 mmHg 73%
    20:00 +25°C° 0 mm 2 mps 760 mmHg 74%
    21:00 +25°C° 0 mm 2 mps 760 mmHg 76%
    22:00 +24°C° 0 mm 2 mps 761 mmHg 78%
    23:00 +24°C° 0 mm 2 mps 760 mmHg 79%

    Day after tomorrow, 18 December, Monday

    Time Temperature Precipitation Wind Pressure Humidity
    00:00 +24°C° 0 mm 2 mps 760 mmHg 80%
    01:00 +24°C° 0 mm 2 mps 760 mmHg 81%
    02:00 +23°C° 0 mm 2 mps 760 mmHg 82%
    03:00 +23°C° 0 mm 2 mps 760 mmHg 83%
    04:00 +23°C° 0 mm 2 mps 759 mmHg 84%
    05:00 +24°C° 0 mm 2 mps 760 mmHg 80%
    06:00 +25°C° 0 mm 3 mps 760 mmHg 75%
    07:00 +27°C° 0 mm 3 mps 760 mmHg 70%
    08:00 +28°C° 0 mm 3 mps 760 mmHg 64%
    09:00 +29°C° 0 mm 3 mps 760 mmHg 59%
    10:00 +31°C° 0 mm 3 mps 760 mmHg 54%
    11:00 +33°C° 0 mm 3 mps 759 mmHg 49%
    12:00 +34°C° 0 mm 3 mps 758 mmHg 45%
    13:00 +35°C° 0 mm 3 mps 758 mmHg 40%
    14:00 +34°C° 0 mm 3 mps 757 mmHg 40%
    15:00 +34°C° 0 mm 4 mps 757 mmHg 40%
    16:00 +33°C° 0 mm 4 mps 757 mmHg 40%
    17:00 +30°C° 0 mm 3 mps 757 mmHg 50%
    18:00 +28°C° 0 mm 3 mps 757 mmHg 60%
    19:00 +26°C° 0 mm 3 mps 758 mmHg 70%
    20:00 +25°C° 0 mm 3 mps 758 mmHg 76%
    21:00 +25°C° 0 mm 2 mps 759 mmHg 81%
    22:00 +24°C° 0 mm 2 mps 759 mmHg 87%
    23:00 +24°C° 0 mm 2 mps 759 mmHg 87%

    19 December, Tuesday

    Time Temperature Precipitation Wind Pressure Humidity
    00:00 +24°C° 0 mm 2 mps 758 mmHg 88%
    01:00 +24°C° 0 mm 1 mps 758 mmHg 89%
    02:00 +23°C° 0 mm 1 mps 758 mmHg 90%
    03:00 +23°C° 0 mm 1 mps 758 mmHg 91%
    04:00 +23°C° 0 mm 1 mps 758 mmHg 92%
    05:00 +24°C° 0 mm 1 mps 758 mmHg 86%
    06:00 +25°C° 0 mm 2 mps 758 mmHg 81%
    07:00 +27°C° 0 mm 2 mps 758 mmHg 75%
    08:00 +29°C° 0 mm 2 mps 758 mmHg 66%
    09:00 +31°C° 0 mm 3 mps 758 mmHg 57%
    10:00 +34°C° 0 mm 3 mps 758 mmHg 48%
    11:00 +35°C° 0 mm 3 mps 757 mmHg 45%
    12:00 +36°C° 0 mm 3 mps 757 mmHg 43%
    13:00 +37°C° 0 mm 4 mps 756 mmHg 41%
    14:00 +36°C° 0 mm 4 mps 756 mmHg 44%
    15:00 +35°C° 0 mm 5 mps 755 mmHg 47%
    16:00 +34°C° 0 mm 5 mps 755 mmHg 50%
    17:00 +32°C° 0.2 mm 5 mps 755 mmHg 58%
    18:00 +29°C° 0.2 mm 4 mps 756 mmHg 66%
    19:00 +27°C° 0.2 mm 4 mps 757 mmHg 75%
    20:00 +26°C° 0.2 mm 4 mps 757 mmHg 78%
    21:00 +26°C° 0.2 mm 3 mps 758 mmHg 81%
    22:00 +25°C° 0.2 mm 2 mps 758 mmHg 85%
    23:00 +25°C° 0 mm 3 mps 758 mmHg 86%

    20 December, Wednesday

    Time Temperature Precipitation Wind Pressure Humidity
    00:00 +24°C° 0 mm 3 mps 757 mmHg 87%
    01:00 +24°C° 0 mm 3 mps 757 mmHg 87%
    02:00 +24°C° 0 mm 3 mps 757 mmHg 88%
    03:00 +22°C° 0 mm 3 mps 756 mmHg 89%
    04:00 +22°C° 0 mm 3 mps 756 mmHg 89%
    05:00 +24°C° 0 mm 3 mps 757 mmHg 84%
    06:00 +25°C° 0 mm 3 mps 757 mmHg 79%
    07:00 +26°C° 0 mm 3 mps 757 mmHg 74%
    08:00 +29°C° 0 mm 3 mps 757 mmHg 63%
    09:00 +33°C° 0 mm 3 mps 757 mmHg 51%
    10:00 +35°C° 0 mm 3 mps 757 mmHg 39%
    11:00 +36°C° 0 mm 3 mps 757 mmHg 38%
    12:00 +37°C° 0 mm 4 mps 756 mmHg 36%
    13:00 +40°C° 0 mm 4 mps 756 mmHg 35%
    14:00 +37°C° 0 mm 5 mps 755 mmHg 40%
    15:00 +36°C° 0 mm 5 mps 755 mmHg 45%
    16:00 +35°C° 0 mm 6 mps 755 mmHg 49%
    17:00 +33°C° 0 mm 6 mps 756 mmHg 56%
    18:00 +30°C° 0 mm 5 mps 756 mmHg 63%
    19:00 +28°C° 0 mm 5 mps 757 mmHg 69%
    20:00 +27°C° 0 mm 4 mps 757 mmHg 72%
    21:00 +27°C° 0 mm 3 mps 758 mmHg 74%
    22:00 +26°C° 0 mm 2 mps 758 mmHg 77%
    23:00 +26°C° 0 mm 2 mps 758 mmHg 78%

    21 December, Thursday

    Time Temperature Precipitation Wind Pressure Humidity
    00:00 +26°C° 0 mm 2 mps 758 mmHg 79%
    01:00 +25°C° 0 mm 3 mps 757 mmHg 80%
    02:00 +25°C° 0 mm 2 mps 757 mmHg 80%
    03:00 +25°C° 0 mm 2 mps 757 mmHg 81%
    04:00 +25°C° 0 mm 2 mps 757 mmHg 81%
    05:00 +26°C° 0 mm 3 mps 758 mmHg 77%
    06:00 +27°C° 0 mm 3 mps 758 mmHg 72%
    07:00 +28°C° 0 mm 3 mps 758 mmHg 67%
    08:00 +30°C° 0 mm 3 mps 758 mmHg 60%
    09:00 +33°C° 0 mm 3 mps 758 mmHg 52%
    10:00 +35°C° 0 mm 3 mps 758 mmHg 45%
    11:00 +36°C° 0 mm 4 mps 758 mmHg 43%
    12:00 +36°C° 0 mm 4 mps 757 mmHg 41%
    13:00 +37°C° 0 mm 5 mps 757 mmHg 39%
    14:00 +36°C° 0 mm 5 mps 756 mmHg 42%
    15:00 +35°C° 0 mm 5 mps 756 mmHg 45%
    16:00 +34°C° 0 mm 5 mps 756 mmHg 47%
    17:00 +33°C° 0 mm 5 mps 756 mmHg 54%
    18:00 +30°C° 0 mm 5 mps 756 mmHg 60%
    19:00 +28°C° 0 mm 4 mps 757 mmHg 67%
    20:00 +27°C° 0 mm 4 mps 757 mmHg 71%
    21:00 +26°C° 0 mm 3 mps 757 mmHg 74%
    22:00 +25°C° 0 mm 3 mps 758 mmHg 78%
    23:00 +25°C° 0 mm 2 mps 758 mmHg 79%
    Show more